When you browse on this site, cookies collect data to enhance your experience and personalize the content and advertising you see.
Visit our Privacy Policy to learn more. By continuing to use the site, you agree to this use of cookies and data.
  • In Czech Republic
  • List of Countries
  • For 7 days
  • Water Temperature
  • Satellite Maps
  • Weather Map
  • Weather Widgets
  • user-avatar
    Login

    Hourly Weather Almeria

    Today, 16 December, Sunday

    Time Temperature Precipitation Wind Pressure Humidity
    00:00 +17°C° 0 mm 4 mps 766 mmHg 66%
    01:00 +15°C° 0 mm 4 mps 766 mmHg 66%
    02:00 +15°C° 0 mm 4 mps 765 mmHg 67%
    03:00 +15°C° 0 mm 4 mps 765 mmHg 68%
    04:00 +15°C° 0 mm 4 mps 765 mmHg 68%
    05:00 +15°C° 0 mm 5 mps 765 mmHg 68%
    06:00 +15°C° 0 mm 5 mps 765 mmHg 69%
    07:00 +16°C° 0 mm 5 mps 765 mmHg 64%
    08:00 +17°C° 0 mm 5 mps 765 mmHg 60%
    09:00 +19°C° 0 mm 5 mps 765 mmHg 55%
    10:00 +21°C° 0 mm 6 mps 765 mmHg 49%
    11:00 +22°C° 0 mm 6 mps 765 mmHg 43%
    12:00 +23°C° 0 mm 6 mps 765 mmHg 37%
    13:00 +23°C° 0 mm 6 mps 765 mmHg 38%
    14:00 +23°C° 0 mm 7 mps 765 mmHg 40%
    15:00 +23°C° 0 mm 7 mps 765 mmHg 41%
    16:00 +22°C° 0 mm 6 mps 765 mmHg 49%
    17:00 +20°C° 0 mm 6 mps 766 mmHg 57%
    18:00 +19°C° 0 mm 6 mps 766 mmHg 65%
    19:00 +17°C° 0 mm 6 mps 766 mmHg 67%
    20:00 +17°C° 0 mm 5 mps 767 mmHg 68%
    21:00 +17°C° 0 mm 5 mps 767 mmHg 69%
    22:00 +16°C° 0 mm 5 mps 767 mmHg 68%
    23:00 +16°C° 0 mm 5 mps 768 mmHg 67%

    Tomorrow, 17 December, Monday

    Time Temperature Precipitation Wind Pressure Humidity
    00:00 +17°C° 0 mm 4 mps 768 mmHg 67%
    01:00 +15°C° 0 mm 4 mps 768 mmHg 64%
    02:00 +16°C° 0 mm 3 mps 768 mmHg 61%
    03:00 +15°C° 0 mm 2 mps 768 mmHg 58%
    04:00 +15°C° 0 mm 2 mps 768 mmHg 59%
    05:00 +14°C° 0 mm 2 mps 768 mmHg 60%
    06:00 +13°C° 0 mm 3 mps 768 mmHg 61%
    07:00 +14°C° 0 mm 3 mps 769 mmHg 60%
    08:00 +16°C° 0 mm 3 mps 769 mmHg 58%
    09:00 +17°C° 0 mm 4 mps 769 mmHg 57%
    10:00 +17°C° 0 mm 4 mps 769 mmHg 58%
    11:00 +18°C° 0 mm 4 mps 769 mmHg 59%
    12:00 +19°C° 0 mm 4 mps 769 mmHg 60%
    13:00 +19°C° 0 mm 4 mps 768 mmHg 61%
    14:00 +19°C° 0 mm 4 mps 768 mmHg 61%
    15:00 +19°C° 0 mm 4 mps 768 mmHg 61%
    16:00 +17°C° 0 mm 4 mps 768 mmHg 68%
    17:00 +15°C° 0 mm 4 mps 768 mmHg 74%
    18:00 +14°C° 0 mm 3 mps 768 mmHg 81%
    19:00 +14°C° 0 mm 3 mps 769 mmHg 82%
    20:00 +14°C° 0 mm 3 mps 769 mmHg 83%
    21:00 +13°C° 0 mm 3 mps 769 mmHg 84%
    22:00 +13°C° 0 mm 3 mps 769 mmHg 83%
    23:00 +13°C° 0 mm 3 mps 769 mmHg 83%

    Day after tomorrow, 18 December, Tuesday

    Time Temperature Precipitation Wind Pressure Humidity
    00:00 +12°C° 0 mm 3 mps 768 mmHg 83%
    01:00 +12°C° 0 mm 3 mps 768 mmHg 82%
    02:00 +12°C° 0 mm 3 mps 768 mmHg 81%
    03:00 +12°C° 0 mm 3 mps 767 mmHg 81%
    04:00 +11°C° 0 mm 3 mps 767 mmHg 81%
    05:00 +11°C° 0 mm 3 mps 767 mmHg 80%
    06:00 +11°C° 0 mm 3 mps 767 mmHg 80%
    07:00 +12°C° 0 mm 3 mps 767 mmHg 73%
    08:00 +14°C° 0 mm 3 mps 767 mmHg 65%
    09:00 +16°C° 0 mm 3 mps 767 mmHg 57%
    10:00 +17°C° 0 mm 3 mps 766 mmHg 53%
    11:00 +19°C° 0 mm 3 mps 766 mmHg 48%
    12:00 +20°C° 0 mm 3 mps 766 mmHg 44%
    13:00 +20°C° 0 mm 2 mps 765 mmHg 45%
    14:00 +20°C° 0 mm 2 mps 765 mmHg 47%
    15:00 +20°C° 0 mm 2 mps 765 mmHg 48%
    16:00 +19°C° 0 mm 2 mps 765 mmHg 56%
    17:00 +18°C° 0 mm 1 mps 765 mmHg 64%
    18:00 +15°C° 0 mm 1 mps 765 mmHg 71%
    19:00 +15°C° 0 mm 1 mps 765 mmHg 71%
    20:00 +15°C° 0 mm 2 mps 766 mmHg 71%
    21:00 +15°C° 0 mm 2 mps 766 mmHg 71%
    22:00 +15°C° 0 mm 2 mps 766 mmHg 70%
    23:00 +14°C° 0 mm 3 mps 766 mmHg 69%

    19 December, Wednesday

    Time Temperature Precipitation Wind Pressure Humidity
    00:00 +16°C° 0 mm 3 mps 765 mmHg 68%
    01:00 +16°C° 0 mm 3 mps 765 mmHg 67%
    02:00 +16°C° 0 mm 3 mps 765 mmHg 67%
    03:00 +15°C° 0 mm 4 mps 765 mmHg 66%
    04:00 +15°C° 0 mm 4 mps 765 mmHg 65%
    05:00 +14°C° 0 mm 4 mps 765 mmHg 65%
    06:00 +14°C° 0 mm 4 mps 765 mmHg 64%
    07:00 +15°C° 0 mm 4 mps 765 mmHg 61%
    08:00 +17°C° 0 mm 4 mps 765 mmHg 57%
    09:00 +18°C° 0 mm 4 mps 766 mmHg 53%
    10:00 +19°C° 0 mm 4 mps 766 mmHg 52%
    11:00 +20°C° 0 mm 4 mps 765 mmHg 51%
    12:00 +21°C° 0 mm 5 mps 765 mmHg 50%
    13:00 +21°C° 0 mm 5 mps 765 mmHg 50%
    14:00 +21°C° 0 mm 4 mps 765 mmHg 50%
    15:00 +21°C° 0 mm 4 mps 764 mmHg 50%
    16:00 +20°C° 0 mm 4 mps 765 mmHg 56%
    17:00 +18°C° 0 mm 4 mps 765 mmHg 63%
    18:00 +17°C° 0 mm 3 mps 766 mmHg 69%
    19:00 +16°C° 0 mm 3 mps 766 mmHg 69%
    20:00 +16°C° 0 mm 2 mps 767 mmHg 70%
    21:00 +15°C° 0 mm 2 mps 767 mmHg 71%
    22:00 +15°C° 0 mm 2 mps 767 mmHg 71%
    23:00 +15°C° 0 mm 2 mps 767 mmHg 72%

    20 December, Thursday

    Time Temperature Precipitation Wind Pressure Humidity
    00:00 +15°C° 0 mm 2 mps 767 mmHg 72%
    01:00 +15°C° 0 mm 2 mps 767 mmHg 73%
    02:00 +14°C° 0 mm 3 mps 767 mmHg 73%
    03:00 +13°C° 0 mm 3 mps 767 mmHg 74%
    04:00 +13°C° 0 mm 3 mps 767 mmHg 75%
    05:00 +13°C° 0 mm 3 mps 767 mmHg 75%
    06:00 +12°C° 0 mm 3 mps 767 mmHg 76%
    07:00 +13°C° 0 mm 3 mps 768 mmHg 71%
    08:00 +14°C° 0 mm 3 mps 768 mmHg 66%
    09:00 +16°C° 0 mm 3 mps 769 mmHg 61%
    10:00 +17°C° 0 mm 3 mps 768 mmHg 56%
    11:00 +17°C° 0 mm 3 mps 768 mmHg 52%
    12:00 +18°C° 0 mm 3 mps 768 mmHg 47%
    13:00 +18°C° 0 mm 3 mps 768 mmHg 46%
    14:00 +18°C° 0 mm 3 mps 768 mmHg 45%
    15:00 +18°C° 0 mm 3 mps 767 mmHg 45%
    16:00 +17°C° 0 mm 2 mps 768 mmHg 50%
    17:00 +16°C° 0 mm 2 mps 768 mmHg 55%
    18:00 +15°C° 0 mm 2 mps 769 mmHg 61%
    19:00 +14°C° 0 mm 2 mps 769 mmHg 62%
    20:00 +14°C° 0 mm 1 mps 770 mmHg 63%
    21:00 +13°C° 0 mm 1 mps 771 mmHg 63%
    22:00 +13°C° 0 mm 1 mps 770 mmHg 64%
    23:00 +13°C° 0 mm 1 mps 770 mmHg 64%

    21 December, Friday

    Time Temperature Precipitation Wind Pressure Humidity
    00:00 +12°C° 0 mm 1 mps 770 mmHg 64%
    01:00 +12°C° 0 mm 1 mps 770 mmHg 63%
    02:00 +12°C° 0 mm 1 mps 770 mmHg 63%
    03:00 +12°C° 0 mm 1 mps 770 mmHg 62%
    04:00 +12°C° 0 mm 1 mps 770 mmHg 62%
    05:00 +11°C° 0 mm 1 mps 770 mmHg 61%
    06:00 +11°C° 0 mm 1 mps 770 mmHg 61%
    07:00 +13°C° 0 mm 1 mps 771 mmHg 55%
    08:00 +15°C° 0 mm 1 mps 771 mmHg 50%
    09:00 +16°C° 0 mm 1 mps 771 mmHg 45%
    10:00 +18°C° 0 mm 1 mps 771 mmHg 41%
    11:00 +19°C° 0 mm 1 mps 771 mmHg 37%
    12:00 +21°C° 0 mm 1 mps 771 mmHg 33%
    13:00 +21°C° 0 mm 1 mps 771 mmHg 34%
    14:00 +21°C° 0 mm 1 mps 770 mmHg 35%
    15:00 +21°C° 0 mm 1 mps 770 mmHg 36%
    16:00 +20°C° 0 mm 1 mps 770 mmHg 43%
    17:00 +18°C° 0 mm 1 mps 770 mmHg 49%
    18:00 +16°C° 0 mm 1 mps 771 mmHg 55%
    19:00 +15°C° 0 mm 1 mps 771 mmHg 56%
    20:00 +15°C° 0 mm 1 mps 771 mmHg 56%
    21:00 +15°C° 0 mm 1 mps 771 mmHg 56%
    22:00 +14°C° 0 mm 1 mps 771 mmHg 57%
    23:00 +14°C° 0 mm 1 mps 771 mmHg 57%
    Show more